| time (UTC) | temp F | wind direction | speed knots | gust knots | rain 1hr in | rain 24hr in | rain mn in | humidity % | barometer mb |
| 20260906113018 | 71 | 123 | 1.7 | 7.8 | 0.00 | 0.00 | 0.00 | 89 | 1018.6 |
| 20260906111516 | 71 | 115 | 2.6 | 7.8 | 0.00 | 0.00 | 0.00 | 88 | 1018.5 |
| 20260906110014 | 71 | 87 | 2.6 | 7.8 | 0.00 | 0.00 | 0.00 | 88 | 1018.4 |
| 20260906104511 | 72 | 61 | 3.5 | 8.7 | 0.00 | 0.00 | 0.00 | 88 | 1018.1 |
| 20260906103014 | 72 | 67 | 2.6 | 7.0 | 0.00 | 0.00 | 0.00 | 87 | 1017.9 |
| 20260906101509 | 72 | 103 | 1.7 | 7.0 | 0.00 | 0.00 | 0.00 | 87 | 1017.9 |
| 20260906100009 | 72 | 69 | 2.6 | 7.0 | 0.00 | 0.00 | 0.00 | 86 | 1017.8 |
| 20260906094506 | 73 | 81 | 2.6 | 7.0 | 0.00 | 0.00 | 0.00 | 86 | 1017.7 |
| 20260906093006 | 73 | 80 | 2.6 | 7.0 | 0.00 | 0.00 | 0.00 | 86 | 1017.7 |
| 20260906091505 | 73 | 79 | 2.6 | 6.1 | 0.00 | 0.00 | 0.00 | 86 | 1017.6 |
| 20260906090004 | 73 | 83 | 3.5 | 7.0 | 0.00 | 0.00 | 0.00 | 86 | 1017.4 |
| 20260906084504 | 73 | 100 | 1.7 | 6.1 | 0.00 | 0.00 | 0.00 | 87 | 1017.4 |
| 20260906083003 | 73 | 88 | 1.7 | 7.0 | 0.00 | 0.00 | 0.00 | 86 | 1017.4 |
| 20260906081501 | 73 | 88 | 3.5 | 7.0 | 0.00 | 0.00 | 0.00 | 85 | 1017.4 |
| 20260906080000 | 73 | 98 | 3.5 | 7.0 | 0.00 | 0.00 | 0.00 | 84 | 1017.6 |
| 20260906074600 | 73 | 74 | 1.7 | 8.7 | 0.00 | 0.00 | 0.00 | 86 | 1017.5 |
| 20260906073059 | 73 | 65 | 2.6 | 7.8 | 0.00 | 0.00 | 0.00 | 86 | 1017.5 |
| 20260906071558 | 73 | 86 | 0.9 | 7.8 | 0.00 | 0.00 | 0.00 | 86 | 1017.7 |
| 20260906070058 | 73 | 64 | 2.6 | 6.1 | 0.00 | 0.00 | 0.00 | 87 | 1017.6 |
| 20260906064557 | 73 | 62 | 1.7 | 8.7 | 0.00 | 0.00 | 0.00 | 87 | 1017.7 |
| 20260906063057 | 73 | 48 | 2.6 | 7.0 | 0.00 | 0.00 | 0.00 | 86 | 1017.6 |
| 20260906061555 | 73 | 19 | 3.5 | 7.8 | 0.00 | 0.00 | 0.00 | 87 | 1017.6 |
| 20260906060127 | 73 | 15 | 5.2 | 8.7 | 0.00 | 0.00 | 0.00 | 87 | 1017.7 |
| 20260906054606 | 73 | 53 | 2.6 | 7.0 | 0.00 | 0.00 | 0.00 | 89 | 1017.5 |
| 20260906053051 | 73 | 47 | 5.2 | 9.6 | 0.00 | 0.00 | 0.00 | 90 | 1017.4 |
| 20260906051549 | 73 | 39 | 3.5 | 9.6 | 0.00 | 0.00 | 0.00 | 90 | 1017.1 |
| 20260906050047 | 73 | 84 | 3.5 | 9.6 | 0.00 | 0.00 | 0.00 | 90 | 1017.2 |
| 20260906044546 | 73 | 68 | 4.3 | 10.4 | 0.00 | 0.00 | 0.00 | 91 | 1016.9 |
| 20260906043050 | 73 | 5 | 5.2 | 12.2 | 0.00 | 0.00 | 0.00 | 91 | 1016.8 |
| 20260906041545 | 72 | 35 | 6.1 | 11.3 | 0.00 | 0.00 | 0.00 | 91 | 1016.7 |
| 20260906040045 | 72 | 55 | 5.2 | 11.3 | 0.00 | 0.00 | 0.00 | 90 | 1016.6 |
| 20260906034558 | 72 | 61 | 7.0 | 12.2 | 0.00 | 0.00 | 0.00 | 90 | 1016.6 |
| 20260906033045 | 73 | 51 | 4.3 | 11.3 | 0.00 | 0.00 | 0.00 | 90 | 1016.6 |
| 20260906031543 | 73 | 61 | 7.0 | 11.3 | 0.00 | 0.00 | 0.00 | 90 | 1016.6 |
| 20260906030044 | 73 | 49 | 7.0 | 14.8 | 0.00 | 0.00 | 0.00 | 89 | 1016.5 |
| 20260906024541 | 73 | 342 | 3.5 | 11.3 | 0.00 | 0.00 | 0.00 | 89 | 1016.4 |
| 20260906023041 | 73 | 34 | 5.2 | 13.9 | 0.00 | 0.00 | 0.00 | 89 | 1016.4 |
| 20260906021543 | 73 | 40 | 3.5 | 11.3 | 0.00 | 0.00 | 0.00 | 89 | 1016.7 |
| 20260906020040 | 73 | 22 | 5.2 | 10.4 | 0.00 | 0.00 | 0.00 | 88 | 1016.7 |
| 20260906014547 | 73 | 77 | 5.2 | 11.3 | 0.00 | 0.00 | 0.00 | 88 | 1016.7 |
| 20260906013038 | 73 | 36 | 6.1 | 12.2 | 0.00 | 0.00 | 0.00 | 88 | 1016.7 |
| 20260906011537 | 73 | 40 | 7.0 | 11.3 | 0.00 | 0.00 | 0.00 | 88 | 1016.5 |
| 20260906010041 | 73 | 24 | 4.3 | 10.4 | 0.00 | 0.00 | 0.00 | 88 | 1016.2 |
| 20260906004536 | 73 | 339 | 6.1 | 15.6 | 0.00 | 0.00 | 0.00 | 89 | 1015.9 |
| 20260906003034 | 73 | 30 | 6.1 | 12.2 | 0.00 | 0.00 | 0.00 | 88 | 1015.8 |
| 20260906001547 | 73 | 26 | 6.1 | 13.9 | 0.00 | 0.00 | 0.00 | 88 | 1015.8 |
| 20260906000035 | 73 | 19 | 6.1 | 13.9 | 0.00 | 0.00 | 0.00 | 88 | 1015.8 |
| 20260905234532 | 73 | 28 | 5.2 | 13.9 | 0.00 | 0.00 | 0.00 | 88 | 1015.8 |
| 20260905233032 | 72 | 23 | 9.6 | 14.8 | 0.00 | 0.00 | 0.00 | 87 | 1016.0 |
| 20260905231530 | 73 | 41 | 6.1 | 14.8 | 0.00 | 0.00 | 0.00 | 88 | 1015.7 |
| 20260905230034 | 73 | 19 | 6.1 | 14.8 | 0.00 | 0.00 | 0.00 | 88 | 1015.6 |
| 20260905224527 | 74 | 19 | 8.7 | 15.6 | 0.00 | 0.00 | 0.00 | 88 | 1015.6 |
| 20260905223040 | 75 | 360 | 6.1 | 13.0 | 0.00 | 0.00 | 0.00 | 87 | 1015.7 |
| 20260905221523 | 75 | 34 | 5.2 | 13.9 | 0.00 | 0.00 | 0.00 | 87 | 1015.5 |
| 20260905220024 | 76 | 5 | 5.2 | 10.4 | 0.00 | 0.00 | 0.00 | 86 | 1015.5 |
| 20260905214520 | 76 | 355 | 6.1 | 12.2 | 0.00 | 0.00 | 0.00 | 86 | 1015.3 |
| 20260905213018 | 76 | 26 | 6.1 | 13.0 | 0.00 | 0.00 | 0.00 | 86 | 1015.1 |
| 20260905211520 | 76 | 40 | 7.0 | 12.2 | 0.00 | 0.00 | 0.00 | 84 | 1015.1 |
| 20260905210023 | 76 | 35 | 7.0 | 13.9 | 0.00 | 0.00 | 0.00 | 86 | 1015.1 |
| 20260905204517 | 77 | 313 | 5.2 | 11.3 | 0.00 | 0.00 | 0.00 | 83 | 1015.1 |
| 20260905203017 | 77 | 36 | 6.1 | 15.6 | 0.00 | 0.00 | 0.00 | 83 | 1015.1 |
| 20260905201522 | 77 | 15 | 7.0 | 12.2 | 0.00 | 0.00 | 0.00 | 83 | 1015.1 |
| 20260905200016 | 78 | 5 | 5.2 | 11.3 | 0.00 | 0.00 | 0.00 | 82 | 1015.2 |
| 20260905194514 | 78 | 46 | 8.7 | 14.8 | 0.00 | 0.00 | 0.00 | 82 | 1015.2 |
| 20260905193018 | 78 | 42 | 5.2 | 12.2 | 0.00 | 0.00 | 0.00 | 82 | 1015.3 |
| 20260905191512 | 77 | 331 | 6.1 | 12.2 | 0.00 | 0.00 | 0.00 | 83 | 1015.4 |
| 20260905190011 | 78 | 14 | 7.0 | 14.8 | 0.00 | 0.00 | 0.00 | 82 | 1015.4 |
| 20260905184517 | 78 | 5 | 6.1 | 13.9 | 0.00 | 0.00 | 0.00 | 83 | 1015.5 |
| 20260905183010 | 77 | 9 | 7.8 | 13.9 | 0.00 | 0.00 | 0.00 | 82 | 1015.5 |
| 20260905181509 | 77 | 9 | 7.0 | 12.2 | 0.00 | 0.00 | 0.00 | 84 | 1015.5 |
| 20260905180010 | 78 | 333 | 5.2 | 9.6 | 0.00 | 0.00 | 0.00 | 84 | 1015.4 |
| 20260905174508 | 77 | 88 | 4.3 | 10.4 | 0.00 | 0.00 | 0.00 | 85 | 1015.4 |
| 20260905173012 | 76 | 24 | 6.1 | 13.0 | 0.00 | 0.00 | 0.00 | 86 | 1015.3 |
| 20260905171507 | 77 | 49 | 7.0 | 11.3 | 0.00 | 0.00 | 0.00 | 85 | 1015.4 |
| 20260905170006 | 77 | 42 | 7.0 | 13.0 | 0.00 | 0.00 | 0.00 | 84 | 1015.5 |
| 20260905164505 | 77 | 44 | 7.0 | 13.9 | 0.00 | 0.00 | 0.00 | 84 | 1015.5 |
| 20260905163002 | 77 | 16 | 4.3 | 11.3 | 0.00 | 0.00 | 0.00 | 86 | 1015.5 |
| 20260905161602 | 76 | 351 | 5.2 | 10.4 | 0.00 | 0.00 | 0.00 | 87 | 1015.5 |
| 20260905160059 | 76 | 47 | 6.1 | 10.4 | 0.00 | 0.00 | 0.00 | 87 | 1015.5 |
| 20260905154603 | 76 | 70 | 6.1 | 11.3 | 0.00 | 0.00 | 0.00 | 88 | 1015.2 |
| 20260905153056 | 77 | 333 | 7.8 | 12.2 | 0.00 | 0.00 | 0.00 | 87 | 1015.1 |
| 20260905151604 | 76 | 15 | 6.1 | 11.3 | 0.00 | 0.00 | 0.00 | 89 | 1015.0 |
| 20260905150051 | 77 | 40 | 5.2 | 8.7 | 0.00 | 0.00 | 0.00 | 86 | 1014.9 |